NAVSTAR 70 (USA 251)    
1 39741U 14026A   19264.47310769  .00000004  00000-0  00000+0 0  9999
2 39741  55.9640  67.4548 0015957 290.4879  69.3705  2.00565357 39167
DELTA 4 R/B             
1 39742U 14026B   19263.77829839  .00000005  00000-0  00000+0 0  9996
2 39742  55.7114  72.3116 0014479  86.4707 273.7293  1.93899429 37879